Location: Champs
(48.8539°N, 2.6040°E)
Time: 17:52:19
(UTC+00:00)

Cosmos 2056 Rocket - Pass Details

Date: 06 June 2022
Orbit: 741 x 801 km, 74.0° (Epoch: 01 July)

Event Time Altitude Azimuth Distance (km) Brightness Sun altitude
Exits shadow 00:24:58 16° 136° (SE) 1,938 5.2 -18.0°
Maximum altitude 00:27:36 23° 97° (E) 1,611 5.2 -18.0°
Drops below altitude 10° 00:31:41 10° 47° (NE) 2,347 6.8 -17.9°
Sets 00:34:32 0° 34° (NNE) 3,291 8.0 -17.8°
